Madrid-Barajas Airport

Airport
ICAO code: 
LEMD
IATA Code: 
MAD
Summary
ICAO Region: 
EUR
Territory: 
Location: 
Barajas, Madrid, Comunidad de Madrid
Serving: 
Madrid
Elevation: 
2000 ft
Coordinates: 
Aerial View: 
40° 29' 37.619" N, 3° 34' 2.468" W
Airport LOS: 
Parallel Runway Operation
Airport RE: 
Engineered Materials Arresting System
Metar
Observation
LEMD 040830Z 15004KT 100V200 CAVOK 27/09 Q1019 NOSIG
Station
Madrid / Barajas
Date/Time
2022-07-04 08:30:00
Wind direction
150°
Wind speed
04 kts
Lowest cloud amount
clouds and visibility OK
Temperature
27°C
Dew point
9°C
Humidity
32%
QNH
1019 hPa
Weather condition
n/a

Spain's principal international airport which serves the whole of central Spain.

Climatology

"Continental" Mediterranean climate - a variation fo the Mediterranean Climate with characteristics of a continental climate due to altitude and limited influence of the sea (Köppen climate classification Csa) - cool winters due to altitude, including sporadic snowfalls and minimum temperatures often below freezing. Summer tends to be hot and dry with significant diurnal temperature range.

Runways

Designator Length Width Surface Rops
14L/32R 3500 60 ASP Yes/Yes
18L/36R 3500 60 ASP Yes/Yes
14R/32L 4100 60 ASP Yes/Yes
18R/36L 4350 60 ASP Yes/Yes

SKYbrary Partners:

Safety knowledge contributed by: